Location: Beadle
(51.4667°N, 109.0000°W)
Time: 05:07:17
(UTC+00:00)

Altair - Pass Details

Date: 31 May 2022
Orbit: 1501 x 1682 km, 47.2° (Epoch: 30 June)

Event Time Altitude Azimuth Distance (km) Brightness Sun altitude
Rises 05:14:21 0° 288° (WNW) 4,932 10.9 -12.1°
Reaches altitude 10° 05:18:09 10° 277° (W) 3,948 10.1 -12.4°
Maximum altitude 05:25:59 27° 226° (SW) 2,844 8.7 -12.9°
Enters shadow 05:32:45 13° 178° (S) 3,672 8.9 -13.3°
Drops below altitude 10° 05:33:47 10° 174° (S) 3,906 - -13.4°
Sets 05:37:33 0° 163° (SSE) 4,870 - -13.6°
